Regional Weather Roundup
Issued by NWS Bismarck, ND

Home | Current Version | Previous Version | Text Only | Print | Product List | Glossary On
Versions: 1 2 3 4 5 6 7 8 9 10 11 12 13 14 15 16 17 18 19 20 21 22 23 24 25 26 27 28 29 30 31 32 33 34 35 36 37 38 39 40 41 42 43 44 45 46 47 48 49 50
000
ASUS43 KBIS 260102
RWRBIS

NWR BROADCAST TEXT
NATIONAL WEATHER SERVICE BISMARCK ND
800 PM CDT THU AUG 25 2016

NOTE: "FAIR" INDICATES FEW OR NO CLOUDS BELOW 12,000 FEET WITH NO
SIGNIFICANT WEATHER AND/OR OBSTRUCTIONS TO VISIBILITY.


CITY           SKY/WX    TMP DP  RH WIND       PRES   REMARKS
WILLISTON      PTCLDY    73  37  27 W7        30.08S
MINOT          CLEAR     69  42  37 N5        30.06S
MINOT AFB      CLEAR     71  37  29 NW3       30.05S
BISMARCK       CLOUDY    65  47  52 SW6       30.12S
DICKINSON      PTCLDY    66  37  34 SW6       30.12F
GARRISON         N/A     64  49  57 W3        30.08F
HETTINGER ARPT PTCLDY    63  41  44 SW5       30.16F
JAMESTOWN      PTCLDY    63  51  65 W7        30.09S
CARRINGTON     FAIR      63  52  67 W5        30.10S
HAZEN          FAIR      64  45  48 W3        30.11F
OAKES            N/A    N/A N/A N/A MISG        N/A
STANLEY        MOCLDY    70  39  32 N3        30.10S
$$

CITY           SKY/WX    TMP DP  RH WIND       PRES   REMARKS
GRAND FORKS    PTCLDY    63  53  70 SW7       30.03F
GRAND FORKS AF CLEAR     62  54  74 SW6       30.04F
DEVILS LAKE    CLEAR     66  47  50 CALM      30.07S
FARGO          PTCLDY    63  51  65 W5        30.07S
CAVALIER       FAIR      66  48  52 N5        30.02S
GRAFTON        FAIR      64  54  68 S6        30.04S
GWINNER        CLOUDY    63  55  77 W6        30.11S
LANGDON        FAIR      64  45  48 N6        30.05S
ROLLA          FAIR      63  50  63 W6        30.07S
$$

CITY           SKY/WX    TMP DP  RH WIND       PRES   REMARKS
ABERDEEN       CLOUDY    65  51  60 CALM      30.13S
MOBRIDGE       CLEAR     68  47  46 CALM      30.13F
BUFFALO          N/A     66  42  41 N6        30.11F
RAPID CITY     MOCLDY    63  43  48 NE6       30.20F
GLASGOW        CLOUDY    68  43  40 VRB5      30.09F
SIDNEY         CLOUDY    68  40  35 SW6       30.10S
WOLF POINT     CLOUDY    72  41  32 SW8       30.09S
GLENDIVE       CLOUDY    69  39  33 W6        30.13F
MILES CITY     CLEAR     69  35  28 S5        30.14F
BAKER          CLOUDY    66  38  35 NW8       30.17F
$$

CITY           SKY/WX    TMP DP  RH WIND       PRES   REMARKS
BILLINGS       MOSUNNY   68  37  32 NE9       30.14F
GREAT FALLS    CLOUDY    66  35  31 E6        30.15S
$$





USA.gov is the U.S. government's official web portal to all federal, state and local government web resources and services.